Simultaneous Nadir Overpasses (SNOs) Predictions

Prediction of SNOs between AQUA and GOES-15 Satellite Orbit:

Table of predicted SNOs for the next 14.0 days since TLE Epoch: 9/2/2016
Index Date Time (AQUA) AQUA Lat,Lon GOES-15 Lat,Lon Distance(km) Time Diff (sec)
1 09/03/2016 22:34:31 -0.22,-134.81 -0.36,-135.35 61.34 80
2 09/05/2016 22:22:19 0.37,-131.85 -0.36,-135.38 401.16 80
3 09/06/2016 10:43:35 0.71,-137.01 0.35,-135.41 182.51 80
4 09/08/2016 10:31:24 0.05,-134.06 0.35,-135.43 156.39 80
5 09/08/2016 22:52:48 -1.15,-139.25 -0.34,-135.42 436.00 80
6 09/10/2016 10:19:12 -0.55,-131.10 0.35,-135.45 494.58 80
7 09/10/2016 22:40:36 -0.54,-136.29 -0.34,-135.43 97.89 80
8 09/12/2016 22:28:25 0.14,-133.35 -0.33,-135.45 239.59 80
9 09/13/2016 10:49:40 0.94,-138.51 0.32,-135.48 343.94 80
10 09/15/2016 10:37:29 0.32,-135.55 0.32,-135.48 7.38 80




NCC Satellite Simultaneous Nadir Overpasses (SNOs) Prediction Service
